Date String (YYYY-MM-DD hh:mm:ss) UTC,Instrument flags,Ambient pressure (hPa),Sample flow (lpm),Bypass flow (lpm),Sample temperature (°C),Ambient temperature (°C),ASC tube jacket temperature (°C),LED temperature (°C),Box temperature (°C),Sample RH (%),Span deviation,Mass concentration (μg/m³),Mass concentration (μg/m³),Mass concentration (μg/m³)
DateTimeUTC,F1_M11,P_M11,Q1_M11,Q2_M11,T1_M11,T2_M11,T3_M11,T4_M11,T5_M11,U1_M11,ZSPAN_M11,X2_M11,X0_M11,X1_M11
2022-10-20 18:00:00,,0827.2,5.00,0.00,30.1,28.9,00.0,38.9,32.0,09.7,0000.0,0002.38,0010.68,0001.46
2022-10-20 18:01:00,,0827.2,5.00,0.00,30.1,29.0,00.0,38.9,32.0,09.4,0000.0,0002.35,0010.04,0001.44
2022-10-20 18:02:00,,0827.1,5.00,0.00,30.2,28.9,00.0,39.0,32.0,09.2,0000.0,0002.35,0010.58,0001.42
2022-10-20 18:03:00,,0827.1,4.99,0.00,30.2,27.8,00.0,38.9,32.0,09.1,0000.0,0002.32,0010.35,0001.41
2022-10-20 18:04:00,,0827.1,5.02,0.00,30.2,26.6,00.0,38.9,31.9,09.4,0000.0,0002.28,0010.00,0001.38
2022-10-20 18:05:00,,0827.1,4.99,0.00,30.1,26.5,00.0,38.8,31.8,09.4,0000.0,0002.29,0009.83,0001.37
2022-10-20 18:06:00,,0827.0,5.01,0.00,30.0,26.8,00.0,38.8,31.6,09.6,0000.0,0002.33,0010.35,0001.38
2022-10-20 18:07:00,,0827.1,5.01,0.00,29.9,27.2,00.0,38.8,31.6,09.7,0000.0,0002.33,0008.96,0001.39
2022-10-20 18:08:00,,0826.9,4.99,0.00,29.9,27.5,00.0,38.7,31.6,09.8,0000.0,0002.39,0009.49,0001.40
2022-10-20 18:09:00,,0827.0,5.02,0.00,29.9,27.7,00.0,38.7,31.6,10.1,0000.0,0002.47,0010.32,0001.41
2022-10-20 18:10:00,,0826.9,4.99,0.00,29.9,27.9,00.0,38.7,31.6,10.4,0000.0,0002.55,0011.13,0001.43
2022-10-20 18:11:00,,0826.9,5.01,0.00,29.9,28.1,00.0,38.7,31.7,10.5,0000.0,0002.67,0011.66,0001.45
2022-10-20 18:12:00,,0826.9,4.99,0.00,29.9,28.3,00.0,38.7,31.7,10.2,0000.0,0002.71,0011.48,0001.48
2022-10-20 18:13:00,,0826.9,5.00,0.00,29.9,28.4,00.0,38.7,31.7,10.0,0000.0,0002.75,0011.39,0001.50
2022-10-20 18:14:00,,0827.1,5.00,0.00,29.9,28.5,00.0,38.7,31.8,10.1,0000.0,0002.86,0011.66,0001.53
2022-10-20 18:15:00,,0827.4,5.00,0.00,29.9,28.6,00.0,38.7,31.8,10.2,0000.0,0002.96,0012.05,0001.57
2022-10-20 18:16:00,,0826.9,5.01,0.00,30.0,28.7,00.0,38.8,31.8,10.2,0000.0,0003.03,0012.14,0001.62
2022-10-20 18:17:00,,0826.8,5.00,0.00,30.0,28.8,00.0,38.8,31.8,09.7,0000.0,0003.11,0012.01,0001.65
2022-10-20 18:18:00,,0826.8,4.99,0.00,30.0,28.8,00.0,38.8,31.9,09.9,0000.0,0003.15,0011.98,0001.66
2022-10-20 18:19:00,,0826.7,5.01,0.00,30.0,28.9,00.0,38.8,31.9,09.9,0000.0,0003.20,0012.14,0001.68
2022-10-20 18:20:00,,0826.7,5.00,0.00,30.1,29.0,00.0,38.8,32.0,10.0,0000.0,0003.23,0011.95,0001.71
2022-10-20 18:21:00,,0826.7,4.99,0.00,30.1,29.0,00.0,38.9,32.0,10.1,0000.0,0003.28,0011.96,0001.72
2022-10-20 18:22:00,,0826.7,5.00,0.00,30.1,28.2,00.0,38.8,32.0,10.1,0000.0,0003.32,0011.29,0001.73
2022-10-20 18:23:00,,0826.6,5.01,0.00,30.1,26.8,00.0,38.8,31.8,10.1,0000.0,0003.34,0011.27,0001.74
2022-10-20 18:24:00,,0826.7,4.99,0.00,30.0,26.5,00.0,38.7,31.7,10.3,0000.0,0003.37,0011.13,0001.75
2022-10-20 18:25:00,,0826.5,5.00,0.00,30.0,26.8,00.0,38.7,31.7,10.2,0000.0,0003.36,0010.80,0001.76
2022-10-20 18:26:00,,0826.5,5.01,0.00,29.9,27.1,00.0,38.7,31.6,10.2,0000.0,0003.42,0011.57,0001.77
2022-10-20 18:27:00,,0826.5,4.98,0.00,29.9,27.4,00.0,38.7,31.6,10.2,0000.0,0003.42,0011.60,0001.75
2022-10-20 18:28:00,,0826.5,5.00,0.00,29.8,27.7,00.0,38.7,31.6,09.7,0000.0,0003.38,0011.30,0001.73
2022-10-20 18:29:00,,0826.5,5.01,0.00,29.8,28.0,00.0,38.7,31.6,09.0,0000.0,0003.36,0011.12,0001.72
2022-10-20 18:30:00,,0826.5,5.01,0.00,29.8,28.1,00.0,38.7,31.6,08.7,0000.0,0003.31,0010.27,0001.70
2022-10-20 18:31:00,,0826.5,4.98,0.00,29.8,28.3,00.0,38.7,31.6,08.7,0000.0,0003.35,0011.07,0001.66
2022-10-20 18:32:00,,0826.5,4.99,0.00,29.9,28.4,00.0,38.7,31.7,08.6,0000.0,0003.30,0010.78,0001.62
2022-10-20 18:33:00,,0826.5,5.00,0.00,29.9,28.5,00.0,38.7,31.7,08.3,0000.0,0003.28,0012.37,0001.58
2022-10-20 18:34:00,,0826.5,5.01,0.00,29.9,28.6,00.0,38.7,31.8,08.1,0000.0,0003.22,0013.24,0001.53
2022-10-20 18:35:00,,0826.4,5.00,0.00,29.9,28.7,00.0,38.7,31.8,08.0,0000.0,0003.18,0013.61,0001.49
2022-10-20 18:36:00,,0826.4,5.00,0.00,30.0,28.8,00.0,38.7,31.8,08.0,0000.0,0003.14,0013.39,0001.44
2022-10-20 18:37:00,,0826.5,5.00,0.00,30.0,28.9,00.0,38.7,31.9,07.9,0000.0,0003.01,0012.82,0001.39
2022-10-20 18:38:00,,0826.4,4.99,0.00,30.0,28.7,00.0,38.8,31.9,07.2,0000.0,0002.83,0012.40,0001.34
2022-10-20 18:39:00,,0826.3,4.99,0.00,30.0,27.4,00.0,38.7,31.8,06.7,0000.0,0002.78,0012.81,0001.28
2022-10-20 18:40:00,,0826.3,5.01,0.00,30.0,26.5,00.0,38.7,31.7,06.3,0000.0,0002.70,0013.01,0001.23
2022-10-20 18:41:00,,0826.2,5.00,0.00,30.0,26.6,00.0,38.6,31.7,06.1,0000.0,0002.61,0013.13,0001.18
2022-10-20 18:42:00,,0826.2,5.01,0.00,29.9,26.9,00.0,38.6,31.5,06.1,0000.0,0002.41,0012.47,0001.12
2022-10-20 18:43:00,,0826.2,4.98,0.00,29.8,27.2,00.0,38.6,31.4,06.1,0000.0,0002.20,0011.58,0001.07
2022-10-20 18:44:00,,0826.2,5.01,0.00,29.8,27.6,00.0,38.6,31.4,06.0,0000.0,0002.02,0010.41,0001.03
2022-10-20 18:45:00,,0826.2,4.99,0.00,29.8,27.8,00.0,38.6,31.5,06.0,0000.0,0001.93,0009.16,0001.00
2022-10-20 18:46:00,,0826.2,5.00,0.00,29.8,28.0,00.0,38.6,31.5,06.0,0000.0,0001.78,0008.75,0000.95
2022-10-20 18:47:00,,0826.2,5.00,0.00,29.8,28.2,00.0,38.6,31.6,06.1,0000.0,0001.63,0008.61,0000.91
2022-10-20 18:48:00,,0826.1,5.00,0.00,29.8,28.3,00.0,38.6,31.6,05.9,0000.0,0001.55,0008.44,0000.87
2022-10-20 18:49:00,,0826.1,4.99,0.00,29.8,28.5,00.0,38.6,31.7,05.9,0000.0,0001.47,0008.27,0000.83
2022-10-20 18:50:00,,0826.0,5.00,0.00,29.9,28.6,00.0,38.6,31.7,06.0,0000.0,0001.38,0007.65,0000.81
2022-10-20 18:51:00,,0826.0,5.00,0.00,29.9,28.7,00.0,38.7,31.8,05.9,0000.0,0001.33,0007.19,0000.79
2022-10-20 18:52:00,,0826.0,4.99,0.00,29.9,28.8,00.0,38.7,31.8,05.7,0000.0,0001.30,0006.70,0000.78
2022-10-20 18:53:00,,0826.0,4.99,0.00,29.9,28.5,00.0,38.7,31.9,05.5,0000.0,0001.23,0006.12,0000.77
2022-10-20 18:54:00,,0826.0,5.01,0.00,29.9,27.2,00.0,38.6,31.8,05.6,0000.0,0001.22,0005.75,0000.75
2022-10-20 18:55:00,,0826.0,5.00,0.00,29.9,26.4,00.0,38.6,31.7,05.7,0000.0,0001.20,0004.51,0000.74
2022-10-20 18:56:00,,0825.9,4.99,0.00,29.9,26.6,00.0,38.5,31.6,05.7,0000.0,0001.18,0004.31,0000.73
2022-10-20 18:57:00,,0825.9,5.02,0.00,29.8,26.8,00.0,38.5,31.3,05.5,0000.0,0001.19,0004.08,0000.71
2022-10-20 18:58:00,,0825.8,4.99,0.00,29.7,27.2,00.0,38.5,31.3,05.5,0000.0,0001.20,0003.61,0000.72
2022-10-20 18:59:00,,0825.8,5.01,0.00,29.7,27.5,00.0,38.5,31.4,05.7,0000.0,0001.17,0003.38,0000.70
